User: anonymous   Login
Location: 相模原市立博物館
(35.5593°N, 139.3931°E)
Time: 15:01:37
(UTC+09:00)
Language:

LilacSat-2 - Orbit

View from above orbital plane
View from above orbital plane
View from above satellite
View from above satellite

Ground track
Ground track

The orbit data is extracted from the following two-line orbital elements,

1 40908U 15049K   22027.83602781  .00001211  00000-0  68449-4 0  9998
2 40908  97.5135  29.9423 0016558 138.5399 305.2200 15.14903609351194
Epoch (UTC): 27 January 2022 20:03:52
Eccentricity: 0.0016558
inclination: 97.5135°
perigee height: 510 km
apogee height: 533 km
right ascension of ascending node: 29.9423°
argument of perigee: 138.5399°
revolutions per day: 15.14903609
mean anomaly at epoch: 305.2200°
orbit number at epoch: 35119

The dashed part of the orbit path shows where the satellite is in the earth's shadow,  

DLR